DateTimeUTC,F1_A11,F1_S11,BsB_S11,BsG_S11,BsR_S11,BbsB_S11,BbsG_S11,BbsR_S11,BaB_A11,BaG_A11,BaR_A11,Tu_S11,T_S11,Uu_S11,U_S11,P_S11,T1_A11
2021-10-25T07:00:00Z,00000200,21000000,,,,,,,-000.39,-000.33,-000.83,19.5,26.4,,00.0,0630.9,31.2
2021-10-25T07:01:00Z,00000200,21000000,,,,,,,0000.01,-000.14,-000.04,19.5,26.3,,00.0,0630.9,31.2
2021-10-25T07:02:00Z,00000200,21000000,,,,,,,-000.13,-000.12,-000.25,19.4,26.3,,00.0,0630.9,31.2
2021-10-25T07:03:00Z,00000200,61000000,,,,,,,-000.07,-000.22,0000.35,19.4,26.3,,00.0,0630.9,31.2
2021-10-25T07:04:00Z,00000200,41000000,-000.77,-000.33,0000.32,0000.32,-000.04,0000.23,0000.62,0000.70,0000.29,19.4,26.1,,00.0,0631.7,31.2
2021-10-25T07:05:00Z,00000200,01000000,-000.06,0000.01,-000.04,0000.28,-000.06,0000.10,-000.41,0000.23,0000.02,19.3,26.0,,00.0,0631.8,31.1
2021-10-25T07:06:00Z,00000200,01000000,0000.22,0000.06,0000.54,0000.04,-000.19,0000.26,0000.22,-000.43,-000.13,19.4,26.0,,00.0,0631.9,31.2
2021-10-25T07:07:00Z,00000200,01000000,-000.33,0000.03,0000.55,0000.80,0000.19,0000.22,0000.13,0000.17,0000.33,19.4,26.0,,00.0,0631.9,31.2
2021-10-25T07:08:00Z,00000200,01000000,0000.12,0000.03,-000.05,0000.41,0000.03,0000.09,0000.06,0000.51,-000.07,19.5,26.0,,00.0,0631.9,31.2
2021-10-25T07:09:00Z,00000200,01000000,0000.09,0000.18,0000.13,0000.36,-000.05,-000.09,0000.34,-000.20,0000.46,19.6,26.1,,00.0,0631.9,31.2
2021-10-25T07:10:00Z,00000200,01000000,0000.79,0000.23,-000.06,0000.33,0000.10,-000.12,0000.39,0000.51,0000.15,19.6,26.1,,00.0,0631.8,31.2
2021-10-25T07:11:00Z,00000200,01000000,0000.21,-000.15,-000.10,0000.05,0000.00,-000.11,-000.16,-000.27,-000.26,19.7,26.2,,00.0,0631.9,31.2
2021-10-25T07:12:00Z,00000200,01000000,0000.00,0000.02,-000.08,0000.39,0000.11,-000.02,-000.30,0000.07,-000.01,19.8,26.2,,00.0,0631.9,31.2
2021-10-25T07:13:00Z,00000200,01000000,-000.46,0000.19,-000.09,0001.02,-000.05,0000.02,-000.28,-000.48,-000.13,19.7,26.2,,00.0,0631.9,31.2
2021-10-25T07:14:00Z,00000200,01000000,0000.28,-000.01,0000.11,0000.89,-000.08,0000.09,-000.35,0000.09,-000.13,19.7,26.2,,00.0,0632.0,31.2
2021-10-25T07:15:00Z,00000200,01000000,-000.17,0000.15,0000.09,0000.89,-000.11,-000.03,0000.08,-000.16,-000.62,19.6,26.1,,00.0,0631.9,31.2
2021-10-25T07:16:00Z,00000200,01000000,0000.01,0000.37,-000.14,0000.18,-000.38,-000.16,-000.04,-000.10,0000.30,19.5,26.1,,00.0,0631.9,31.2
2021-10-25T07:17:00Z,00000200,01000000,-000.01,-000.03,-000.01,0000.27,0000.00,0000.25,-000.10,-000.13,-000.52,19.4,26.0,,00.0,0632.0,31.1
2021-10-25T07:18:00Z,00000200,01000000,0000.50,-000.19,0000.19,0000.56,-000.09,0000.05,0000.18,-000.09,0000.44,19.4,26.0,,00.0,0631.9,31.2
2021-10-25T07:19:00Z,00000200,01000000,0000.25,0000.15,0000.38,0000.44,0000.25,0000.29,0000.04,0000.15,0000.27,19.3,26.0,,00.0,0632.0,31.1
2021-10-25T07:20:00Z,00000200,01000000,-000.34,-000.06,0000.14,0000.28,0000.03,0000.19,0000.25,-000.00,0000.05,19.3,25.9,,00.0,0632.0,31.1
2021-10-25T07:21:00Z,00000200,01000000,0000.05,0000.18,0000.09,-000.20,0000.21,0000.37,0000.12,-000.27,-000.07,19.3,25.9,,00.0,0632.0,31.1
2021-10-25T07:22:00Z,00000200,01000000,0000.55,0000.17,-000.27,0000.32,0000.06,-000.12,-000.25,0000.46,0000.25,19.4,25.9,,00.0,0632.0,31.2
2021-10-25T07:23:00Z,00000200,01000000,-000.42,0000.14,-000.16,-000.26,0000.04,-000.24,0000.45,0000.10,-000.16,19.4,26.0,,00.0,0632.0,31.2
2021-10-25T07:24:00Z,00000200,01000000,0000.20,0000.11,0000.08,0000.08,-000.14,0000.08,-000.16,0000.27,0000.36,19.5,26.0,,00.0,0632.1,31.2
2021-10-25T07:25:00Z,00000200,01000000,0000.08,-000.31,0000.02,0000.36,0000.01,-000.03,-000.21,0000.02,-000.03,19.6,26.0,,00.0,0632.1,31.2
2021-10-25T07:26:00Z,00000200,01000000,-000.02,-000.16,-000.03,0000.42,0000.11,-000.23,0000.17,0000.07,0000.33,19.6,26.1,,00.0,0632.1,31.2
2021-10-25T07:27:00Z,00000200,01000000,0000.55,-000.06,0000.06,-000.15,-000.15,0000.12,0000.19,0000.07,-000.37,19.6,26.1,,00.0,0632.1,31.2
2021-10-25T07:28:00Z,00000200,01000000,-000.23,0000.47,0000.10,0000.28,-000.35,0000.10,-000.27,-000.42,0000.09,19.6,26.1,,00.0,0632.1,31.2
2021-10-25T07:29:00Z,00000200,01000000,-000.17,0000.12,-000.11,0000.64,0000.01,-000.38,-000.03,0000.22,-000.41,19.5,26.0,,00.0,0632.1,31.2
2021-10-25T07:30:00Z,00000200,01000000,0000.49,0000.59,0000.38,0000.04,0000.06,0000.08,0000.02,0000.06,0000.19,19.4,26.0,,00.0,0632.0,31.2
2021-10-25T07:31:00Z,00000200,01000000,-000.03,-000.20,0000.23,-000.16,-000.25,-000.12,0000.05,-000.01,-000.15,19.4,25.9,,00.0,0632.1,31.2
2021-10-25T07:32:00Z,00000200,01000000,-000.21,0000.04,0000.04,0000.64,-000.17,0000.17,0000.26,-000.41,0000.12,19.3,25.9,,00.0,0632.1,31.1
2021-10-25T07:33:00Z,00000200,01000000,0000.73,0000.23,0000.14,0000.76,-000.06,0000.07,-000.17,0000.11,0000.22,19.2,25.9,,00.0,0632.1,31.2
2021-10-25T07:34:00Z,00000200,01000000,0000.01,-000.13,-000.09,0000.30,-000.25,0000.40,-000.16,0000.12,-000.21,19.2,25.8,,00.0,0632.1,31.1
2021-10-25T07:35:00Z,00000200,01000000,-000.31,0000.39,-000.01,0000.00,0000.09,-000.12,-000.13,0000.16,-000.19,19.2,25.8,,00.0,0632.2,31.1
2021-10-25T07:36:00Z,00000200,01000000,-000.01,-000.34,-000.17,0000.57,-000.08,-000.06,0000.40,-000.32,0000.30,19.2,25.8,,00.0,0632.2,31.1
2021-10-25T07:37:00Z,00000200,01000000,0000.15,-000.12,0000.17,-000.12,-000.26,0000.37,-000.33,0000.33,0000.36,19.2,25.8,,00.0,0632.2,31.2
2021-10-25T07:38:00Z,00000200,01000000,0000.19,0000.15,0000.16,0000.88,-000.00,-000.00,0000.27,-000.10,0000.05,19.3,25.9,,00.0,0632.2,31.2
2021-10-25T07:39:00Z,00000200,01000000,0000.12,0000.02,0000.13,0000.84,-000.08,0000.15,0000.19,0000.11,-000.58,19.4,25.9,,00.0,0632.2,31.2
2021-10-25T07:40:00Z,00000200,01000000,0000.05,0000.34,0000.13,0000.76,0000.26,0000.06,-000.13,-000.00,0000.28,19.5,25.9,,00.0,0632.3,31.2
2021-10-25T07:41:00Z,00000200,01000000,0000.74,0000.38,0000.19,0000.36,-000.19,0000.13,-000.15,0000.14,0000.06,19.5,26.0,,00.0,0632.3,31.2
2021-10-25T07:42:00Z,00000200,01000000,0000.09,-000.12,0000.05,0000.28,-000.13,-000.05,-000.06,0000.04,0000.04,19.6,26.0,,00.0,0632.3,31.2
2021-10-25T07:43:00Z,00000200,01000000,0000.22,-000.32,0000.13,-000.20,0000.25,0000.14,0000.23,0000.33,0000.47,19.7,26.0,,00.0,0632.4,31.2
2021-10-25T07:44:00Z,00000200,01000000,-000.19,-000.14,0000.21,0000.86,0000.12,0000.10,0000.08,-000.41,-000.30,19.6,26.0,,00.0,0632.3,31.2
2021-10-25T07:45:00Z,00000200,01000000,0000.53,0000.22,-000.01,0000.32,-000.09,-000.05,-000.63,-000.19,-000.45,19.6,26.0,,00.0,0632.3,31.2
2021-10-25T07:46:00Z,00000200,01000000,-000.24,-000.10,-000.02,-000.02,-000.01,0000.15,0000.14,0000.11,0000.12,19.5,26.0,,00.0,0632.3,31.2
2021-10-25T07:47:00Z,00000200,01000000,-000.56,-000.07,-000.01,0000.10,0000.12,0000.07,0000.22,-000.23,0000.03,19.4,25.9,,00.0,0632.3,31.2
2021-10-25T07:48:00Z,00000200,01000000,0000.01,0000.14,0000.27,0000.53,-000.41,0000.40,0000.16,-000.14,0000.01,19.4,25.9,,00.0,0632.4,31.1
2021-10-25T07:49:00Z,00000200,01000000,-000.66,0000.00,-000.04,-000.15,0000.16,-000.13,-000.04,0000.32,0000.04,19.3,25.9,,00.0,0632.4,31.2
2021-10-25T07:50:00Z,00000200,01000000,0000.27,-000.11,0000.11,-000.01,-000.31,0000.04,0000.18,-000.09,0000.23,19.3,25.9,,00.0,0632.4,31.2
2021-10-25T07:51:00Z,00000200,01000000,0000.59,0000.19,0000.12,0000.12,-000.17,0000.08,-000.03,0000.32,0000.07,19.3,25.9,,00.0,0632.4,31.1
2021-10-25T07:52:00Z,00000200,01000000,-000.42,-000.04,0000.13,0000.29,0000.01,-000.03,0000.19,0000.34,0000.01,19.3,25.9,,00.0,0632.5,31.2
2021-10-25T07:53:00Z,00000200,01000000,0000.09,-000.12,0000.23,0000.59,0000.13,0000.27,0000.18,-000.15,0000.09,19.4,25.9,,00.0,0632.4,31.2
2021-10-25T07:54:00Z,00000200,01000000,0000.26,0000.28,0000.15,0000.45,0000.02,0000.12,-000.19,0000.43,0000.28,19.5,25.9,,00.0,0632.4,31.2
2021-10-25T07:55:00Z,00000200,01000000,0000.71,0000.07,0000.11,0000.46,0000.02,0000.29,-000.05,-000.01,0000.13,19.6,26.0,,00.0,0632.4,31.2
2021-10-25T07:56:00Z,00000200,01000000,0000.42,-000.02,0000.04,-000.29,-000.00,0000.09,0000.33,0000.25,-000.29,19.6,26.0,,00.0,0632.5,31.2
2021-10-25T07:57:00Z,00000200,41000000,,,,,,,0000.77,0000.56,0000.57,19.7,26.1,,00.0,0632.4,31.2
2021-10-25T07:58:00Z,00000200,61000000,,,,,,,-000.83,-000.55,-000.59,19.4,26.1,,00.0,0631.6,31.2
2021-10-25T07:59:00Z,00000200,21000000,,,,,,,-000.08,-000.07,0000.40,19.4,26.2,,00.0,0631.6,31.2
